Regional Weather Roundup
Issued by NWS

Home | Current Version | Previous Version | Text Only | Print | Product List | Glossary Off
Versions: 1 2 3 4 5 6 7 8 9 10 11 12 13 14 15 16 17 18 19 20 21 22 23 24 25 26 27 28 29 30 31 32 33 34 35 36 37 38 39 40 41 42 43 44 45 46 47 48 49 50

000
ASUS43 KMPX 291501
RWRMN
WEATHER ROUNDUP FOR MINNESOTA
NATIONAL WEATHER SERVICE TWIN CITIES/CHANHASSEN MN
1000 AM CDT TUE JUL 29 2014


NOTE: "FAIR" INDICATES FEW OR NO CLOUDS BELOW 12,000 FEET WITH NO
SIGNIFICANT WEATHER AND/OR OBSTRUCTIONS TO VISIBILITY. N/A MEANS
CURRENT SKY AND/OR WEATHER CONDITIONS ARE NOT AVAILABLE.

MNZ060>063-068>070-291600-
   Twin Cities Metro

CITY           SKY/WX    TMP DP  RH WIND       PRES   REMARKS
TWIN CITIES    SUNNY     72  58  61 W6        30.13F
ST PAUL        SUNNY     71  58  63 N5        30.13F
CRYSTAL        SUNNY     71  57  61 W6        30.12F
LAKEVILLE      SUNNY     68  59  73 W5        30.14S
EDEN PRAIRIE   SUNNY     70  58  65 W5        30.13F
SOUTH ST PAUL  SUNNY     71  56  60 NW5       30.12F
LAKE ELMO      FAIR      70  59  68 N6        30.14S
$$
MNZ001>005-007-008-013>017-022>024-027-028-291600-
   Northwest Minnesota

CITY           SKY/WX    TMP DP  RH WIND       PRES   REMARKS
BEMIDJI        SUNNY     68  55  62 NW12      30.16S
HALLOCK        SUNNY     68  57  68 N5        30.17S
ROSEAU         SUNNY     68  59  73 W8        30.15S
WARROAD        SUNNY     68  61  77 W7        30.14S
THIEF RVR FALL SUNNY     66  55  68 NW8       30.17F
CROOKSTON      SUNNY     66  57  72 NW3       30.18S
FOSSTON        SUNNY     66  54  63 NW8       30.18S
DETROIT LAKES  SUNNY     64  55  72 N8        30.20S
MOORHEAD       SUNNY     66  61  82 N3        30.19S
PARK RAPIDS    SUNNY     69  55  60 NW12      30.17S
$$
MNZ006-009>011-018-025>026-291600-
   North Central Minnesota

CITY           SKY/WX    TMP DP  RH WIND       PRES   REMARKS
BAUDETTE       SUNNY     69  59  70 NW12      30.13S
FLAG ISLAND    SUNNY     68  55  64 NW15      30.10S
INTL FALLS     SUNNY     70  57  63 NW10      30.08S
WASKISH        SUNNY     70  57  64 NW6       30.13S
BIG FORK       SUNNY     70  55  60 NW3       30.12S
LONGVILLE      SUNNY     68  61  77 NW6       30.14S
GRAND RAPIDS   SUNNY     68  55  64 NW10G18   30.12F
CRANE LAKE     SUNNY     64  59  82 NW6       30.08S
ORR            MOSUNNY   64  55  72 W5        30.07S
COOK           PTSUNNY   63  57  82 W6        30.10R
$$
MNZ012-019>021-037-291600-
   Northeast Minnesota

CITY           SKY/WX    TMP DP  RH WIND       PRES   REMARKS
DULUTH         MOSUNNY   70  55  59 NW13      30.07S
ELY            MOSUNNY   66  55  68 W9        30.06F
HIBBING        MOSUNNY   70  57  63 NW13      30.10S
EVELETH        MOSUNNY   66  54  63 NW12      30.09S
DULUTH HARBOR  MOSUNNY   66  59  77 SW7       30.06F
TWO HARBORS    SUNNY     70  55  60 NW7       30.03S
SILVER BAY     MOSUNNY   70  61  73 NW7       30.02S
GRAND MARAIS     N/A     72  57  59 NW8       29.99F
G MARAIS ARPRT SUNNY     66  54  63 NW5       30.04F
$$
MNZ029>031-032-039>041-046>048-054>057-064-291600-
   West Central Minnesota

CITY           SKY/WX    TMP DP  RH WIND       PRES   REMARKS
FERGUS FALLS   SUNNY     70  54  56 N6        30.19S
WHEATON        SUNNY     64  57  77 W3        30.22S
MORRIS         SUNNY     68  61  77 NW3       30.19S
ALEXANDRIA     SUNNY     69  56  62 NW9       30.19F
ELBOW LAKE     FAIR      66  57  74 NW6       30.19S
WADENA         SUNNY     66  55  68 NW6       30.17F
GLENWOOD       SUNNY     70  57  64 NW9       30.19S
APPLETON       SUNNY     70  57  64 NW3       30.19S
BENSON         SUNNY     68  57  68 N6        30.19S
ORTONVILLE     SUNNY     66  55  68 NW6       30.20S
MADISON        SUNNY     70  61  73 NW5       30.20S
WILLMAR        FAIR      70  57  64 NW8       30.20S
$$
MNZ033>034-036-042>043-049>051-058-059-291600-
   Central Minnesota

CITY           SKY/WX    TMP DP  RH WIND       PRES   REMARKS
ST CLOUD       SUNNY     72  56  57 NW7       30.14F
SAUK CENTRE    FAIR      68  56  65 NW9       30.18S
PAYNESVILLE    SUNNY     68  56  66 W6        30.18S
AITKIN         SUNNY     73  61  64 N7        30.12S
PINE RIVER     SUNNY     68  57  68 NW7       30.17F
BRAINERD       SUNNY     68  55  63 NW9       30.15F
STAPLES        MOSUNNY   68  57  68 NW7       30.17S
LONG PRAIRIE   FAIR      66  55  68 W7        30.18S
LITTLE FALLS   SUNNY     68  54  60 W7        30.16S
LITCHFIELD     SUNNY     70  61  73 W6        30.18S
BUFFALO        SUNNY     70  56  60 NW6       30.16S
MAPLE LAKE     SUNNY     70  59  68 NW7       30.16S
$$
MNZ037-044-045-052-053-291600-
   East Central Minnesota

CITY           SKY/WX    TMP DP  RH WIND       PRES   REMARKS
PRINCETON      SUNNY     72  59  64 W6        30.14S
MORA           SUNNY     70  59  68 NW7       30.13F
CAMBRIDGE      SUNNY     72  57  60 W3        30.11F
RUSH CITY      SUNNY     69  60  72 CALM      30.11F
MOOSE LAKE     SUNNY     68  57  68 NW5       30.09S
HINCKLEY       FAIR      70  61  73 NW5       30.11S
CLOQUET        MOSUNNY   66  55  68 W8        30.09S
MCGREGOR       SUNNY     68  57  68 NW9       30.13S
$$
MNZ071>073-080-081-089-090-097-098-291600-
   Southwest Minnesota

CITY           SKY/WX    TMP DP  RH WIND       PRES   REMARKS
MONTEVIDEO     SUNNY     70  64  83 NW5       30.20F
GRANITE FALLS  SUNNY     65  58  78 W5        30.21F
CANBY          MOSUNNY   67  55  65 NW8       30.22S
MARSHALL       SUNNY     66  54  63 N6        30.20S
REDWOOD FALLS  SUNNY     69  57  65 NW7       30.18F
OLIVIA         SUNNY     70  59  68 N8        30.18S
PIPESTONE      SUNNY     66  54  63 NW5       30.22F
WINDOM         SUNNY     66  55  68 NW9       30.20F
WORTHINGTON    SUNNY     66  55  68 N8        30.23S
JACKSON        SUNNY     68  55  64 NW7       30.21S
TRACY          SUNNY     67  57  69 NW7       30.21F
SLAYTON        SUNNY     66  56  70 CALM      30.23S
$$
MNZ065>067-074>077-082>085-091>093-291600-
   South Central Minnesota

CITY           SKY/WX    TMP DP  RH WIND       PRES   REMARKS
MANKATO        SUNNY     66  55  68 W7        30.17S
NEW ULM        SUNNY     66  59  77 NW5       30.18S
ST JAMES       SUNNY     70  57  64 NW7       30.20S
FAIRMONT       SUNNY     70  55  60 NW8       30.19S
GLENCOE        SUNNY     71  55  58 NW9       30.15F
FARIBAULT      SUNNY     73  55  53 NW5       30.15S
OWATONNA       SUNNY     68  57  68 NW7       30.15S
WASECA         SUNNY     66  54  63 NW5       30.18S
ALBERT LEA     SUNNY     68  57  68 N3        30.16S
$$
MNZ078>079-086>088-094>096-291600-
   Southeast Minnesota

CITY           SKY/WX    TMP DP  RH WIND       PRES   REMARKS
ROCHESTER      SUNNY     69  58  67 VRB6      30.15F
RED WING       SUNNY     72  59  64 W6        30.11S
STANTON        SUNNY     70  59  68 W7        30.13S
DODGE CENTER   SUNNY     66  59  77 NW7       30.15S
WINONA         SUNNY     70  59  68 N3        30.11F
AUSTIN         SUNNY     68  57  68 NW7       30.15S
PRESTON        SUNNY     67  63  86 NW8       30.14S
$$
ABBREVIATIONS USED IN REMARKS
   TC - TEMPERATURES IN CELSIUS
  WCI - WIND CHILL INDEX
   HX - HEAT INDEX
  VSB - VISIBILITY
$$



USA.gov is the U.S. government's official web portal to all federal, state and local government web resources and services.